[[{"header":{"parameterUnit":"m.s-1","parameterCategory":1,"la1":30.2992,"la2":30.254,"lo1":-89.0895,"lo2":-89.0443,"dy":0.0025,"dx":0.0025,"nx":19,"ny":19,"refTime":"2026-03-21T09:00:00:Z","depth":0,"parameterNumber":2,"parameterNumberName":"U-component_of_WINDS"},"data":[0,0,0,3.9914,3.9916,3.9992,3.9992,4.0125,4.0127,0,0,0,0,0,0,0,0,0,0,0,3.9912,3.9914,3.9914,3.9917,3.9992,3.9992,4.0125,4.0127,0,0,0,0,0,0,0,0,0,0,0,3.9912,3.9914,3.9916,3.9917,3.9992,3.9992,4.0124,4.0055,0,0,0,0,0,0,0,0,0,0,3.9975,3.9993,3.9913,3.9916,3.9918,3.9992,3.9992,4.0051,4.0059,4.0106,0,4.0152,0,4.0142,4.0138,4.0138,0,0,0,3.9902,3.9986,3.9988,3.9916,3.9918,3.9992,3.9954,4.0055,4.0065,4.0117,4.0153,4.0157,4.0144,4.0139,4.014,4.0458,4.046,0,0,3.9897,3.9937,3.9982,3.9995,3.9984,3.9951,3.9956,4.006,4.0103,4.0154,4.016,4.0146,4.014,4.0141,4.0456,4.0458,0,0,0,3.9896,3.9935,3.9933,3.9991,4.0002,3.9954,3.996,4.0098,4.0094,4.0161,4.0148,4.0141,4.0143,4.0453,4.0456,4.0603,0,0,0,3.9892,3.9934,3.9932,3.9958,4.0001,4.005,3.9996,4.0087,4.0097,4.0147,4.0141,4.0144,4.0451,4.0455,4.0594,4.0666,0,0,0,3.9901,3.9934,3.9952,3.9959,3.9993,4.0048,4.0049,4.0088,4.009,4.0138,4.0145,4.0449,4.0454,4.0586,4.0652,4.0762,0,0,0,3.9921,4.0081,3.9955,4.013,3.9993,4.0138,4.0048,4.0154,4.0213,4.0142,4.0451,4.0456,4.0583,4.0644,4.0753,4.0861,4.091,0,0,4.0145,4.011,4.0209,4.0099,4.0276,4.0123,4.0323,4.0339,4.0308,4.041,4.0417,4.0597,4.0651,4.076,4.1169,4.1208,0,0,0,4.0294,4.0366,4.0405,4.0462,4.0479,4.05,4.0481,4.0488,4.0573,4.0368,4.0665,4.0696,4.0758,4.0808,4.0841,4.0892,4.0481,4.048,4.048,4.0668,4.062,4.0782,4.0744,4.0802,4.0782,4.0825,4.083,4.0764,4.0836,4.0865,4.1119,4.1179,4.1203,4.1258,4.0918,4.0919,4.092,4.092,4.0993,4.1088,4.0998,4.1122,4.1072,4.1176,4.1165,4.1115,4.1206,4.1092,4.1145,4.1024,4.1248,4.1292,4.093,4.0929,4.0927,4.0926,4.0926,4.1232,4.1269,4.1275,4.1356,4.1424,4.138,4.1472,4.1422,4.1375,4.1427,4.1454,4.1451,4.1443,4.1444,4.1445,4.1445,4.1446,4.1447,4.1447,4.1478,4.148,4.1563,4.1597,4.1629,4.1664,4.1649,4.1679,4.17,4.1656,4.1656,4.1584,4.1279,4.1203,4.1461,4.1458,4.1457,4.1455,4.1454,4.1825,4.1739,4.1868,4.19,4.1937,4.2009,4.1944,4.2011,4.2029,4.2077,4.1994,4.1776,4.1736,4.1709,4.1646,4.2003,4.2003,4.2003,4.2003,4.2027,4.2002,4.2123,4.2179,4.2227,4.2183,4.2333,4.2324,4.23,4.2309,4.225,4.2163,4.2138,4.2112,4.2077,4.2017,4.2461,4.2461,4.2461,4.2237,4.2216,4.2351,4.2328,4.2353,4.2377,4.2516,4.2585,4.254,4.2479,4.2315,4.2296,4.2153,4.2109,4.2043,4.1989,4.1879,0,0]},{"header":{"parameterUnit":"m.s-1","parameterCategory":1,"la1":30.2992,"la2":30.254,"lo1":-89.0895,"lo2":-89.0443,"dy":0.0025,"dx":0.0025,"nx":19,"ny":19,"refTime":"2026-03-21T09:00:00:Z","depth":0,"parameterNumber":3,"parameterNumberName":"V-component_of_WINDS"},"data":[0,0,0,3.5124,3.5129,3.5359,3.536,3.5646,3.5648,0,0,0,0,0,0,0,0,0,0,0,3.5049,3.5051,3.5124,3.5129,3.5359,3.536,3.5645,3.5648,0,0,0,0,0,0,0,0,0,0,0,3.5049,3.5051,3.5053,3.513,3.5359,3.536,3.5645,3.5475,0,0,0,0,0,0,0,0,0,0,3.5253,3.5177,3.505,3.5053,3.5132,3.5358,3.536,3.5467,3.5485,3.5537,0,3.558,0,3.5618,3.5666,3.5667,0,0,0,3.5136,3.5161,3.5229,3.5053,3.5134,3.5358,3.5257,3.5477,3.5498,3.5562,3.5584,3.5595,3.5623,3.5668,3.567,3.5943,3.5944,0,0,3.5123,3.5088,3.5214,3.5242,3.5204,3.525,3.5264,3.549,3.5513,3.5585,3.5602,3.5627,3.567,3.5672,3.5942,3.5943,0,0,0,3.5082,3.5079,3.5141,3.523,3.5272,3.5256,3.5273,3.5503,3.5526,3.5605,3.5631,3.5672,3.5675,3.5941,3.5942,3.5955,0,0,0,3.5075,3.5055,3.5135,3.5116,3.5267,3.539,3.528,3.551,3.5537,3.5629,3.5672,3.5678,3.594,3.5941,3.5953,3.5968,0,0,0,3.5037,3.5051,3.5081,3.5114,3.5211,3.5387,3.5423,3.5517,3.5553,3.5668,3.5678,3.5939,3.5941,3.595,3.5965,3.6029,0,0,0,3.4987,3.5092,3.5081,3.5208,3.5209,3.5392,3.5422,3.5562,3.5662,3.5673,3.594,3.5942,3.595,3.5962,3.6026,3.6076,3.6094,0,0,3.51,3.5105,3.5183,3.5179,3.5355,3.536,3.554,3.5667,3.5712,3.5864,3.5871,3.5954,3.5964,3.6028,3.6205,3.6218,0,0,0,3.5207,3.5262,3.5316,3.5408,3.5505,3.559,3.5692,3.5739,3.5869,3.5782,3.5996,3.6003,3.6042,3.6068,3.608,3.6115,3.5952,3.5952,3.5952,3.5318,3.5366,3.5498,3.5573,3.5662,3.5765,3.5842,3.5923,3.5949,3.5998,3.6044,3.6144,3.6173,3.6182,3.6219,3.6074,3.6074,3.6075,3.6075,3.5489,3.5574,3.5602,3.5739,3.579,3.5908,3.601,3.6024,3.6141,3.6115,3.6152,3.6118,3.6195,3.623,3.6076,3.6076,3.6076,3.6076,3.6075,3.5567,3.5616,3.5669,3.5805,3.5905,3.5979,3.6089,3.6132,3.6175,3.6211,3.6263,3.6263,3.6268,3.6232,3.6233,3.6233,3.6233,3.6234,3.6234,3.5627,3.5686,3.5772,3.5882,3.5945,3.6035,3.6137,3.6202,3.6285,3.6308,3.6309,3.6329,3.6193,3.6158,3.624,3.6239,3.6238,3.6237,3.6237,3.5782,3.5753,3.5886,3.595,3.6081,3.6177,3.623,3.6357,3.6417,3.647,3.6481,3.6374,3.6383,3.6374,3.6345,3.647,3.647,3.647,3.647,3.5848,3.5856,3.6,3.6098,3.62,3.626,3.6409,3.649,3.6569,3.6609,3.6597,3.6563,3.6551,3.6567,3.6554,3.6528,3.6697,3.6697,3.6697,3.5946,3.5965,3.6083,3.6157,3.6262,3.6352,3.6494,3.6607,3.6691,3.6707,3.6641,3.6632,3.6576,3.6556,3.6572,3.655,3.6503,0,0]}]]